Regional Weather Roundup
Issued by NWS San Diego, CA

Home | Current Version | Previous Version | Text Only | Print | Product List | Glossary On
Versions: 1 2 3 4 5 6 7 8 9 10 11 12 13 14 15 16 17 18 19 20 21 22 23 24 25 26 27 28 29 30 31 32 33 34 35 36 37 38 39 40 41 42 43 44 45 46 47 48 49 50
377
ASUS46 KSGX 230711
RWRSGX

SAN DIEGO HOURLY WEATHER ROUNDUP
NATIONAL WEATHER SERVICE SAN DIEGO CA
1200 AM PDT WED MAY 23 2018

NOTE: "FAIR" INDICATES FEW OR NO CLOUDS BELOW 12,000 FEET WITH NO
SIGNIFICANT WEATHER AND/OR OBSTRUCTIONS TO VISIBILITY.

CAZ042-043-060-061-PZZ750-775-230800-

GREATER SAN DIEGO AREA

CITY           SKY/WX    TMP DP  RH WIND       PRES   REMARKS
SAN DIEGO AP   MOCLDY    62  52  69 S5        29.97R
NATIONAL CITY    N/A     61  54  78 CALM      29.96S
CHULA VISTA      N/A     58  53  84 CALM      29.87S
IMPERIAL BEACH PTCLDY    54  49  83 CALM      29.96S
BROWN FIELD    CLOUDY    56  51  84 S3        29.95S
MIRAMAR MCAS   CLEAR     56  47  71 CALM      29.95S
MONTGOMERY FLD CLEAR     59  52  77 CALM      29.96R
GILLESPIE FLD  CLOUDY    59  50  72 CALM      29.95S

$$

NORTH SAN DIEGO COUNTY

CITY           SKY/WX    TMP DP  RH WIND       PRES   REMARKS
OCEANSIDE AP   CLOUDY    57  53  86 CALM      29.94S
OCEANSIDE HBR    N/A     62  58  87 E3        29.97R
VISTA            N/A     57  52  84 CALM      29.92S
CARLSBAD       CLOUDY    58  54  86 SE5       29.94S
DEL MAR          N/A     58  54  86 CALM      29.96S
LA JOLLA SCRIP   N/A     60  56  86 SW1       29.95S
FALLBROOK        N/A     56  56  99 CALM      29.95S
ESCONDIDO        N/A     57  52  82 CALM      29.95S
SAN MARCOS       N/A     56  51  85 CALM      29.98S
POWAY            N/A     54  49  81 CALM      29.95R

$$

EAST SAN DIEGO COUNTY

CITY           SKY/WX    TMP DP  RH WIND       PRES   REMARKS
RAMONA         MOCLDY    52  49  89 CALM      29.95S
SANTEE LAKES     N/A     55  49  80 CALM      29.94S
LA MESA          N/A     56  51  84 CALM      29.90R
JAMUL            N/A     54  50  87 CALM      29.95S
CAMPO            N/A     46  42  86 CALM      29.92R

$$

ORANGE COUNTY AND THE LOS ANGELES BASIN

CITY           SKY/WX    TMP DP  RH WIND       PRES   REMARKS
JOHN WAYNE AP  CLOUDY    61  54  77 SW3       29.94S
LAGUNA BEACH     N/A     55  52  90 CALM      29.89S
LAKE FOREST FR   N/A     55  49  82 CALM      29.83F
HUNTINGTON BCH   N/A     60  55  83 CALM      29.94S
LOS ALAMITOS   CLOUDY    62  52  70 W3        29.93S
FULLERTON      CLOUDY    66  52  60 CALM      29.93S
LONG BEACH     CLOUDY    62  53  72 NW3       29.93S
L.A. AP        CLOUDY    60  54  80 SW8       29.94S
L.A. DOWNTOWN  CLOUDY    61  53  75 CALM      29.93S

$$

THE INLAND EMPIRE

CITY           SKY/WX    TMP DP  RH WIND       PRES   REMARKS
CORONA         CLEAR     59  52  77 MISG      29.94S
CHINO          CLEAR     57  50  77 W6        29.95R
ONTARIO        PTCLDY    57  50  77 W6        29.94R
SAN BERNARDINO CLOUDY    60  51  72 SW5       29.94S
RIVERSIDE AP   CLEAR     58  52  80 W3        29.94R
MORENO VALLEY    N/A     56  54  95 NW3       28.05S
MARCH ARB      CLEAR     52  52 100 NW3       29.94R
HORSETHIEF CYN   N/A     55  46  72 CALM      29.94R
PERRIS           N/A     56  53  91 NW3         N/A
HEMET EAST       N/A     55  47  75 CALM      29.88R
FRENCH VALLEY  FAIR      54  48  82 SE3       29.95S
TEMECULA         N/A     55  53  91 S1        30.01R

$$

SAN BERNARDINO AND RIVERSIDE COUNTY MOUNTAINS

CITY           SKY/WX    TMP DP  RH WIND       PRES   REMARKS
BIG BEAR AP    CLEAR     37  30  75 CALM      30.05S

$$

SOUTHERN DESERT INCLUDING THE COACHELLA VALLEY

CITY           SKY/WX    TMP DP  RH WIND       PRES   REMARKS
PALM SPRINGS   CLEAR     73  49  42 NW9       29.80R
THOUSAND PALMS   N/A     69  50  50 W16       29.76S
PALM DESERT      N/A     70  51  50 CALM      31.84R
THERMAL        CLEAR     75  50  41 NW14G21   29.74S
BLYTHE         CLEAR     77  33  20 S10       29.77R
IMPERIAL AP    CLEAR     69  47  45 W9        29.74F
EL CENTRO NAS  CLEAR     73  43  33 W15       29.77S
YUMA AZ        CLEAR     71  47  42 S6        29.78R
MEXICALI       CLEAR     68  50  52 E2        29.78

$$

UPPER DESERT

CITY           SKY/WX    TMP DP  RH WIND       PRES   REMARKS
HESPERIA         N/A     57  48  72 W2        29.85S
APPLE VALLEY     N/A     55  47  74 CALM      29.86S
PALMDALE       CLEAR     61  48  62 SW13      29.89R
LANCASTER      CLEAR     59  48  67 SW13      29.87S
EDWARDS AFB    CLEAR     62  47  58 SW12      29.84S
DAGGETT        CLEAR     73  45  36 SW12      29.83R
29 PALMS N     CLEAR     71  37  28 CALM      29.89R
NEEDLES        CLEAR     82  31  15 W13       29.76R

$$

REGIONAL REPORTS

CITY           SKY/WX    TMP DP  RH WIND       PRES   REMARKS
SANTA BARBARA  CLEAR     57  53  86 E3        29.92F
SANDBERG       CLEAR     55  44  66 NW12      29.98S
LAS VEGAS NV   PTCLDY    76  34  21 SW6       29.79S
PHOENIX AZ     CLEAR     77  34  21 SW5       29.81R
TIJUANA        CLEAR     57  50  77 CALM      29.98R
ENSENADA NW      N/A     60  32  34 CALM      29.90F

$$

OFFSHORE ISLANDS

CITY           SKY/WX    TMP DP  RH WIND       PRES   REMARKS
CATALINA ARPT  FOG       50  32  50 SW5       29.94F VSB<1/4
SAN CLEMENTE I CLOUDY   N/A N/A N/A W5        29.96F
SAN NICOLAS IS MOCLDY    54  32  43 W12       29.94S

$$

MARINE AND OFFSHORE BUOY REPORTS

STATION/POSITION SKY/WX   TEMP    WIND        PRES    VSBY  SWELL
                          AIR SEA DIR/SP/G                  HT/PER/DIR
                          (F)     (DEG/KT/KT) (MB)    (MI)  (FT/S/D)
TANNER BANKS               57 60              1014.4R
S CLEMENTE BASIN           59 62  260/  8/ 10 1014.3F         5/190/17
SAN NICOLAS IS.               56                N/A           3/180/17
SO. S. ROSA ISLA           54 56  300/ 14/ 17 1013.6F         5/210/17
W. S. BARBARA CH              53  320/ 14/ 16 1013.5R         5/170/17
M. S. BARBARA CH           55 58  220/  8/ 10 1014.0
S. MONICA BASIN                   340/  6/ 10 1013.3F         3/190/17
S PEDRO CHANNEL               63                N/A           2/190/17
CMP PENDLETON NS              64                N/A           3/220/18
OCEANSIDE OFFSHR              63                N/A           3/200/18
TORREY PINES OTR              64                N/A           3/200/18
SAN DIEGO BAY                 65              1013.9S
POINT LOMA SOUTH              63                N/A           3/200/18

$$





USA.gov is the U.S. government's official web portal to all federal, state and local government web resources and services.